Content
SEND FEEDBACK

Daily
Averages
Monthly
Summary
United States of America

LIVONIA, MICHIGAN


Home > North America > United States > Michigan
Elevation: 778 feet     Latitude: 42 13N     Longitude: 083 31W

WEATHER
 
SELECT A DAY
Number of Records: 202,692;   Date Range: 1/1/95 - 8/12/14
 
SHARE

PRINT THIS DATA

[ ← Previous Day ]
WEATHER ALMANAC - JANUARY 24, 2013
[ Next Day → ]
[ °C ]   °F
Weather ElementAverageHighLow
Temperature14.7 °F21.9 °F (2:53 pm)10 °F (4:53 am)
Dewpoint2.9 °F9 °F (1:53 am)-2.9 °F (6:53 pm)
Humidity60.9 %76 % (4:53 am)38 % (3:53 pm)
Barometer30.47 in30.60 in (11:53 am)30.18 in (1:53 am)
Wind Speed6.8 mph12.7 mph (4:11 am)
Wind Gust18.4 mph (10:53 am)
Weather ElementAverage
Visibility10 mi
Wind DirectionWSW (255.4 °)

Weather ElementTotal
Precipitation---
Heating Degree Days49.1 (Base 65)
Averaged from 26 records on January 24, 2013
WEATHER CONDITIONS BREAKOUT
WIND DIRECTION BREAKOUT
WEATHER BY HOUR - JANUARY 24, 2013
[ °C ]   °F
Local TimeTemperatureDewpointHumidityBarometerVisibilityWind DirectionWind SpeedGust SpeedPrecipitationEventsConditions
1:53 AM16.0 °F9.0 °F74 %30.18 in9.0 miNNW (330°)11.5 mphOvercast
2:53 AM12.9 °F5.0 °F71 %30.23 in10.0 miNNW (340°)9.2 mphClear
3:20 AM12.2 °F5.0 °F73 %30.22 in10.0 miNNW (340°)11.5 mphMostly Cloudy
3:53 AM14.0 °F6.1 °F71 %30.28 in10.0 miNNW (330°)11.5 mphMostly Cloudy
4:11 AM14.0 °F6.8 °F73 %30.26 in10.0 miNW (320°)12.7 mphMostly Cloudy
4:39 AM12.2 °F5.0 °F73 %30.28 in10.0 miNW (320°)9.2 mphPartly Cloudy
4:53 AM10.0 °F3.9 °F76 %30.33 in10.0 miNW (310°)8.1 mphClear
5:53 AM10.9 °F3.9 °F73 %30.38 in10.0 miWNW (300°)10.4 mphPartly Cloudy
6:53 AM10.9 °F3.9 °F73 %30.43 in10.0 miNNW (330°)11.5 mphPartly Cloudy
7:53 AM10.9 °F3.0 °F70 %30.47 in10.0 miNNW (330°)9.2 mphMostly Cloudy
8:53 AM10.9 °F3.0 °F70 %30.51 in10.0 miNNW (340°)10.4 mphClear
9:53 AM14.0 °F5.0 °F67 %30.55 in10.0 miNNW (340°)10.4 mphClear
10:53 AM18.0 °F6.1 °F60 %30.59 in10.0 miNorth (360°)9.2 mph18.4 mphClear
11:53 AM19.0 °F3.9 °F52 %30.60 in10.0 miNorth (350°)5.8 mphClear
12:53 PM19.9 °F3.0 °F48 %30.58 in10.0 miNNW (340°)5.8 mphClear
1:53 PM19.9 °F1.0 °F44 %30.58 in10.0 miWest (280°)4.6 mphClear
2:53 PM21.9 °F1.0 °F40 %30.57 in10.0 miNW (310°)5.8 mphClear
3:53 PM19.9 °F-2.0 °F38 %30.58 in10.0 miCalmClear
4:53 PM17.1 °F-0.9 °F45 %30.59 in10.0 miWNW (300°)5.8 mphClear
5:53 PM16.0 °F-2.0 °F45 %30.59 in10.0 miNNW (340°)3.5 mphClear
6:53 PM14.0 °F-2.9 °F47 %30.59 in10.0 miNW (320°)3.5 mphClear
7:53 PM12.9 °F-2.0 °F51 %30.58 in10.0 miCalmClear
8:53 PM10.9 °F1.0 °F64 %30.56 in10.0 miCalmClear
9:53 PM12.9 °F3.9 °F67 %30.55 in10.0 miCalmClear
10:53 PM15.1 °F1.9 °F56 %30.54 in10.0 miCalmClear
11:53 PM16.0 °F5.0 °F62 %30.52 in10.0 miESE (110°)8.1 mphClear
Hourly data recorded from KYIP, located miles away from Livonia, Michigan







STORIES FROM OUR PARTNERS